Regional Weather Roundup
Issued by NWS

Home | Current Version | Previous Version | Text Only | Print | Product List | Glossary On
Versions: 1 2 3 4 5 6 7 8 9 10 11 12 13 14 15 16 17 18 19 20 21 22 23 24 25 26 27 28 29 30 31 32 33 34 35 36 37 38 39 40 41 42 43 44 45 46 47 48 49 50
000
ASUS43 KFSD 031602
RWRSD

WEATHER ROUNDUP FOR SOUTH DAKOTA
NATIONAL WEATHER SERVICE SIOUX FALLS SD
1100 AM CDT SUN MAY 03 2015

NOTE: "FAIR" INDICATES FEW OR NO CLOUDS BELOW 12,000 FEET WITH NO
SIGNIFICANT WEATHER AND/OR OBSTRUCTIONS TO VISIBILITY.


SDZ001>005-009-010-012>017-031700-
NORTHWEST AND NORTH CENTRAL SOUTH DAKOTA

CITY           SKY/WX    TMP DP  RH WIND       PRES   REMARKS
BUFFALO          N/A     57  35  43 NE14      29.94R
FAITH            N/A     59  34  39 N21       29.95R
MOBRIDGE       PTSUNNY   62  37  39 N21G26    29.91R
$$

SDZ012>016-024>037-041>051-057-063-072>074-031700-
SOUTHWEST AND SOUTH CENTRAL SOUTH DAKOTA

CITY           SKY/WX    TMP DP  RH WIND       PRES   REMARKS
RAPID CTY ARPT SUNNY     60  38  43 N20G26    29.99R
PIERRE         MOSUNNY   68  37  32 N31G37    29.87R
CUSTER         SUNNY     56  33  42 NE14G23   30.00R
ELLSWORTH AFB  SUNNY     59  38  45 N13       29.99R
PHILIP         MOSUNNY   65  36  34 NE21G29   29.93R
PINE RIDGE     SUNNY     62  37  39 NE20G29   29.94R
WINNER         FAIR      68  39  34 N28G36    29.83R
$$

SDZ004>011-016>023-039-040-031700-
NORTHEAST SOUTH DAKOTA

CITY           SKY/WX    TMP DP  RH WIND       PRES   REMARKS
ABERDEEN       MOSUNNY   67  37  33 N25G33    29.87R
WATERTOWN      SUNNY     69  40  34 NE35G44   29.81R
BROOKINGS      SUNNY     72  55  56 N12       29.77S
SISSETON         N/A     68  40  35 N30G38    29.84R
$$

SDZ017-020-022-023-036>040-048>070-031700-
SOUTHEAST SOUTH DAKOTA

CITY           SKY/WX    TMP DP  RH WIND       PRES   REMARKS
SIOUX FALLS    PTSUNNY   73  55  53 S12       29.75S
HURON          SUNNY     73  40  30 N25G43    29.79R
MITCHELL       MOSUNNY   72  55  55 N14       29.77R
YANKTON        SUNNY     72  55  56 CALM      29.73R
$$

ABBREVIATIONS USED IN REMARKS
   TC - TEMPERATURE IN CELSIUS
  WCI - WIND CHILL INDEX
   HX - HEAT INDEX
  VSB - VISIBILITY



USA.gov is the U.S. government's official web portal to all federal, state and local government web resources and services.